[Date Prev][Date Next][Thread Prev][Thread Next] - [Date Index][Thread Index][Author Index]

2 Line ISS Keps 5-11



ISS
1 25544U 98067A   03131.12832816  .00016976  00000-0  21831-3 0  9952
2 25544  51.6311 206.4581 0006390 103.1995 342.5464 15.59179245255223


----
Via the sarex mailing list at AMSAT.ORG courtesy of AMSAT-NA.
To unsubscribe, send "unsubscribe sarex" to Majordomo@amsat.org



AMSAT Top AMSAT Home